Simultaneous Nadir Overpasses (SNOs) Predictions

Prediction of SNOs between GOES-16 and NPP Satellite Orbit:

Table of predicted SNOs for the next 14.0 days since TLE Epoch: 7/20/2024
Index Date Time (GOES-16) GOES-16 Lat,Lon NPP Lat,Lon Distance(km) Time Diff (sec)
1 07/20/2024 06:38:53 0.04, -75.21 0.66, -78.07 325.49 80
2 07/21/2024 06:17:28 0.04, -75.21 -0.31, -73.53 190.63 80
3 07/22/2024 18:42:07 -0.04, -75.21 -0.86, -78.85 414.45 80
4 07/23/2024 18:20:43 -0.04, -75.22 0.16, -74.32 102.29 80
5 07/25/2024 06:45:13 0.05, -75.24 0.99, -79.60 496.54 80
6 07/26/2024 06:23:48 0.04, -75.25 0.02, -75.07 20.68 80
7 07/28/2024 18:27:03 -0.04, -75.28 -0.14, -75.86 66.12 80
8 07/29/2024 18:08:18 -0.03, -75.29 0.83, -71.33 451.33 80
9 07/31/2024 06:32:48 0.03, -75.32 0.31, -76.61 146.70 80
10 08/01/2024 06:11:24 0.02, -75.34 -0.74, -72.09 370.79 80
11 08/02/2024 18:33:22 0.02, -75.36 -0.46, -77.40 233.12 80
